Location: Biltmore Gardens
(41.6070°N, 83.4666°W)
Time: 14:22:20
(UTC+00:00)

Cosmos 2218 Rocket - Pass Details

Date: 14 July 2020
Orbit: 955 x 1007 km, 82.9° (Epoch: 12 August)

Event Time Altitude Azimuth Distance (km) Brightness Sun altitude
Exits shadow 04:09:49 48° 170° (S) 1,271 4.1 -23.4°
Maximum altitude 04:11:42 78° 95° (E) 1,013 3.9 -23.6°
Drops below altitude 10° 04:17:59 10° 10° (N) 2,737 7.1 -24.0°
Sets 04:20:29 0° 9° (N) 3,681 8.0 -24.2°
